sat.trackr.live / text

‹ back to catalog

ALPHASAT

NORAD 39215 · 2013-038A

PAYLOAD ACTIVE UNKNOWN

§ Identity

Operator
Country
IM
Launch date
2013-07-25
Launch site
FRGUI
Launch vehicle
Mass (kg)
RCS (m²)
16.31

Purposes: comms

External: N2YO · Heavens-Above · Gunter

§ Orbital elements

Epoch: 2026-09-20T01:38:31.431840Z

Period
1,436.06 min
Inclination
3.0035°
Eccentricity
0.0003697
Mean motion
1.00274196 rev/d
Perigee alt
35,770.3 km
Apogee alt
35,801.5 km
Semi-major
42,164.1 km
B*
0.0000e+0
RAAN
0.6902°
Arg perigee
187.9645°
Mean anomaly
219.8198°
Rev number
4,497

§ Raw data

ALPHASAT1 39215U 13038A   26263.06841935  .00000133  00000+0  00000+0 0  99952 39215   3.0035   0.6902 0003697 187.9645 219.8198  1.00274196 44977

JSON: /api/v1/satellites/39215 · /tle

For live sub-satellite position, see the globe view (requires WebGL).

§ Visibility from observer

Set your observer location to see the next 7 days of passes ≥ 10°. The values pass through the URL so the page stays shareable.

No JS? Fill the form by hand. The geolocation button needs JavaScript.

§ Radio — SatNOGS DB

ModeDescriptionDownlinkUplink
FSK Mode L 1.553 GHz

1 transmitter · refreshed weekly from db.satnogs.org